Location: Newark
(48.1500°N, 2.9667°W)
Time: 04:22:59
(UTC+00:00)

Transit 2A - Pass Details

Date: 01 February 2020
Orbit: 600 x 959 km, 66.7° (Epoch: 17 February)

Event Time Altitude Azimuth Distance (km) Brightness Sun altitude
Rises 02:32:05 0° 327° (NNW) 2,971 - -49.8°
Reaches altitude 10° 02:34:20 10° 331° (NNW) 2,098 - -49.5°
Maximum altitude 02:39:02 59° 51° (NE) 827 - -48.8°
Drops below altitude 10° 02:44:11 10° 131° (SE) 2,303 - -48.2°
Sets 02:46:45 0° 135° (SE) 3,289 - -47.8°
